Theta_e
302 302 302 301 300 300 302 302 302 302 302 298 296 298 292 293 291 301 302 303 301 294 288 291 290 290 291 292 290 292 290 290 292 289 291 289 293 290 288 290 289 291 289 288 290 293 291 292 291 295 296 297 299 301 301 300 294 296 295 293 296 307 294 288 288 292 294 296 296 299 298 297 295 294 294 293 294 295 294 293 292 288 286 287 286 285 289
302 302 301 300 300 301 302 302 301 301 301 299 298 294 292 294 292 296 301 303 300 291 284 284 287 289 291 290 289 291 290 289 287 288 290 291 292 290 290 292 292 291 291 293 292 294 289 293 294 294 295 296 299 298 302 296 295 295 295 294 300 289 289 290 287 287 290 293 295 296 297 300 297 296 296 292 291 292 294 293 294 288 289 290 287 282 290
302 301 300 300 300 301 301 301 301 301 302 303 298 291 293 292 296 298 298 301 298 289 290 287 285 289 288 289 287 288 293 292 290 288 288 294 293 291 290 291 292 292 292 294 294 294 294 292 295 296 295 297 300 299 303 303 302 306 303 305 299 293 289 290 284 281 280 280 282 285 289 293 296 294 294 294 293 293 295 288 289 286 287 287 288 288 293
301 300 300 300 300 301 301 301 301 301 302 303 299 294 292 290 285 292 294 296 296 295 298 295 291 287 288 285 289 292 289 295 296 293 292 294 294 293 292 292 292 293 295 293 292 294 297 295 294 295 295 297 298 298 302 307 306 307 307 303 301 291 291 289 290 288 287 288 289 292 293 295 293 291 292 293 292 290 296 294 289 287 287 289 292 295 293
301 300 300 300 300 300 301 301 302 301 302 302 298 295 293 294 288 287 285 293 293 292 294 293 294 290 291 285 291 290 292 293 294 295 292 293 292 293 292 291 292 292 294 292 293 292 294 296 296 294 296 296 298 299 301 305 306 306 304 303 297 294 291 291 290 289 289 289 290 292 293 291 290 292 292 291 292 293 295 290 289 294 289 286 293 296 294
300 300 300 300 300 300 300 300 302 301 302 303 300 291 293 286 291 295 296 288 286 286 288 292 292 294 294 292 293 291 291 291 288 293 293 294 295 292 293 293 291 289 292 294 290 292 292 293 290 294 294 296 297 299 299 298 302 305 300 300 300 295 289 291 292 289 291 291 291 293 292 291 291 291 291 291 292 294 294 290 290 293 291 288 295 297 296
300 300 300 300 300 300 300 301 300 303 302 302 297 289 294 295 293 295 298 291 292 290 291 293 293 293 294 292 293 290 291 290 292 290 292 293 294 293 287 289 291 291 291 293 289 290 289 288 292 293 294 295 296 295 297 298 300 301 300 299 298 296 290 292 293 290 291 291 292 293 292 291 292 291 291 292 293 292 291 289 291 292 293 293 297 297 294
300 300 300 299 299 300 301 301 301 302 302 301 295 293 290 291 289 289 296 295 294 293 294 294 293 291 294 290 292 292 292 291 293 293 290 287 292 294 291 289 291 292 292 293 291 290 294 295 290 293 295 292 295 294 296 296 298 299 298 300 298 298 289 293 290 290 287 290 292 293 293 292 289 290 291 292 293 293 293 293 292 294 293 296 295 291 288
300 300 299 299 299 300 301 301 301 301 302 296 295 294 297 297 299 298 293 291 293 293 293 293 291 289 292 291 293 291 292 291 294 291 291 291 291 294 291 292 293 293 293 293 291 292 293 295 296 297 298 294 295 297 295 296 297 297 299 299 299 298 291 293 290 289 287 290 289 290 292 292 290 288 289 290 291 290 290 289 290 292 291 292 292 289 287
300 300 299 299 299 300 300 300 301 301 302 297 296 293 300 299 302 301 296 289 294 293 292 291 291 288 292 293 292 292 292 293 292 289 293 294 293 293 294 294 294 292 292 291 292 294 295 296 297 297 297 298 297 297 296 295 295 294 296 295 296 296 293 290 290 288 285 289 288 288 289 292 289 286 287 290 290 291 292 292 293 294 296 291 290 292 291
300 299 299 299 299 300 300 300 301 302 301 296 294 294 296 294 292 294 296 289 290 291 292 291 290 293 293 295 295 294 292 293 292 291 288 294 294 294 294 295 293 290 291 293 295 297 298 299 299 299 298 297 296 297 298 296 295 296 297 295 294 296 296 291 294 288 287 290 287 289 287 283 284 289 292 291 291 292 290 287 289 290 295 291 293 290 291
299 299 299 299 300 300 300 301 302 302 302 300 299 296 299 299 296 295 290 288 289 290 290 290 292 292 292 294 294 291 292 293 292 295 294 293 294 294 295 295 295 289 295 298 299 300 300 300 299 299 297 297 297 297 296 295 295 295 295 297 294 293 292 290 292 289 287 289 289 286 280 282 288 294 294 295 294 293 289 289 289 290 291 291 290 290 290
299 299 299 299 300 300 300 301 302 302 302 301 299 295 299 301 295 293 292 289 288 290 288 291 290 290 291 291 291 292 292 291 294 295 295 296 293 294 292 294 295 295 298 298 297 296 295 294 293 292 293 293 296 297 294 294 294 296 296 296 296 290 291 289 288 288 289 287 287 280 281 286 290 292 294 295 295 294 293 289 290 291 292 292 289 289 289
299 299 299 299 300 300 300 301 302 302 302 302 299 299 299 300 294 293 292 287 287 289 288 289 288 288 290 290 292 291 292 293 294 295 294 294 293 293 294 294 294 295 297 298 295 295 292 290 287 289 290 290 292 293 292 294 293 293 293 293 295 296 292 291 287 288 286 285 284 282 286 286 288 288 291 293 291 292 291 287 288 291 292 291 288 288 288
299 299 299 299 300 300 300 301 301 302 302 303 301 300 300 300 298 294 294 293 286 288 287 286 287 290 291 290 291 290 290 291 293 291 291 293 294 294 295 295 296 295 296 299 295 292 289 286 285 284 285 284 281 284 291 290 293 294 293 293 293 295 294 292 290 284 287 285 282 283 283 281 286 290 293 295 295 295 294 292 287 292 293 293 290 288 288
299 299 299 299 300 300 300 301 301 302 302 302 301 299 300 302 300 296 293 292 288 286 286 290 291 292 292 291 291 293 289 288 289 290 292 293 293 295 296 296 297 296 295 291 289 288 285 286 281 282 281 282 284 284 284 289 290 294 295 296 296 294 295 292 291 284 286 284 283 281 280 282 288 291 292 294 294 294 293 293 289 293 293 293 292 289 289
299 299 298 299 299 299 300 300 301 301 302 302 299 299 299 303 299 296 292 289 290 285 293 294 291 292 290 290 292 291 291 289 290 289 287 290 293 290 296 297 299 298 296 294 290 289 286 282 282 284 284 283 284 283 287 286 286 288 294 296 294 292 288 291 288 284 284 284 283 282 283 283 288 291 292 293 295 294 293 285 286 292 294 293 292 290 289
299 299 299 298 298 299 300 300 301 301 301 302 301 298 298 303 301 298 295 294 288 288 293 293 291 291 291 292 291 288 292 291 291 292 291 290 290 294 294 297 296 294 296 292 287 285 281 283 285 284 283 288 287 287 282 286 284 284 286 284 287 286 286 287 286 286 283 283 282 283 284 287 291 291 292 294 294 294 285 282 288 293 294 294 293 291 291
299 299 298 298 298 299 300 300 301 301 301 302 303 301 300 302 302 300 297 294 291 286 293 294 291 292 292 294 294 293 293 296 296 291 289 289 293 293 293 294 294 292 292 289 289 285 285 281 284 285 285 286 288 284 287 285 282 282 282 285 286 284 283 283 285 285 285 284 284 283 284 287 292 292 292 294 292 285 286 291 294 295 293 294 293 292 293
299 298 298 298 299 299 300 301 301 301 302 302 302 296 299 302 302 300 296 292 291 290 293 293 292 291 292 296 296 295 294 294 292 293 290 290 293 292 294 290 294 295 291 293 286 286 285 284 286 286 285 285 287 286 284 281 283 284 284 284 285 285 285 284 284 280 282 281 283 281 280 285 291 293 293 295 288 289 292 292 294 295 294 294 293 293 292
298 298 298 298 299 299 300 300 301 301 302 302 302 298 296 302 302 302 301 296 293 288 292 294 294 296 294 294 295 297 298 297 294 295 291 293 294 294 286 285 292 293 289 291 286 286 286 284 287 285 288 288 287 288 284 281 283 286 286 285 286 286 284 281 282 285 283 280 281 281 284 287 291 292 288 292 293 295 295 295 291 295 295 294 293 292 292
298 298 298 299 299 300 300 301 301 302 302 302 302 299 295 300 302 302 302 300 293 290 292 296 297 297 299 295 295 299 298 298 300 299 295 294 294 293 293 292 292 294 294 292 289 286 288 288 289 287 286 286 288 284 284 284 282 285 287 287 284 287 286 287 284 284 282 283 284 285 288 289 293 293 292 293 295 296 296 296 294 293 293 296 293 292 292
298 298 299 299 299 300 300 301 301 302 302 302 302 298 295 297 298 303 301 295 296 297 299 299 297 294 295 296 296 297 297 298 300 299 301 297 292 295 297 298 296 295 293 294 295 293 292 291 288 291 288 289 286 283 285 286 283 284 282 286 286 288 289 289 287 283 287 289 290 291 290 291 291 293 294 293 293 295 296 295 293 294 295 295 293 293 293
298 298 299 299 299 300 300 301 301 302 302 303 302 298 297 299 299 299 299 296 293 289 291 292 295 291 292 294 297 296 299 298 301 302 300 306 295 293 295 296 296 296 297 295 295 297 292 290 291 291 287 288 289 285 284 282 283 285 285 284 287 289 290 288 286 287 287 281 288 289 289 290 291 291 292 293 294 293 295 294 294 294 294 293 294 293 292
298 298 298 299 299 300 301 301 302 302 302 303 302 302 301 299 300 299 297 288 286 287 286 288 291 295 296 295 295 295 296 297 301 302 301 302 306 301 298 299 298 299 297 296 294 295 291 290 288 289 285 289 290 284 287 285 282 288 284 285 286 286 293 288 287 286 285 284 287 288 290 290 291 292 291 290 291 292 294 294 295 294 294 294 293 293 292
298 298 298 299 300 300 301 301 302 302 302 303 302 300 298 298 301 302 298 295 289 290 287 286 293 299 296 297 295 295 296 298 299 300 300 300 300 305 299 297 296 296 295 294 297 293 289 288 287 288 289 286 292 287 285 287 288 288 287 285 289 290 292 284 287 284 284 287 288 289 289 289 289 291 292 292 292 291 292 293 293 293 292 292 292 293 292
298 298 299 299 299 300 301 301 302 302 302 302 302 301 300 300 301 299 298 295 290 287 289 289 291 293 296 295 295 297 296 298 300 299 298 299 299 300 301 299 297 297 298 295 292 289 289 288 289 288 290 288 291 288 289 288 288 285 284 287 291 289 285 288 286 282 282 283 285 289 285 283 286 288 290 291 292 292 291 291 290 291 290 291 290 291 292
299 299 299 299 300 300 301 301 301 302 302 303 302 300 300 300 300 301 301 298 296 291 289 288 292 295 297 296 297 297 298 298 299 298 298 297 298 298 298 298 298 297 294 295 291 291 290 289 287 286 287 289 290 286 288 289 290 287 285 287 289 288 288 288 285 284 284 288 290 291 290 288 289 289 291 292 292 291 290 290 290 290 291 291 290 290 291
299 299 299 300 300 301 301 301 302 302 302 302 299 298 298 299 301 301 301 301 299 291 289 291 295 294 290 293 298 297 298 299 299 298 297 297 297 297 296 296 295 294 294 291 289 289 288 286 287 289 289 291 290 285 287 283 283 281 284 288 289 291 293 292 291 290 291 292 291 292 290 287 289 291 291 291 293 291 290 291 291 291 292 293 293 293 292
299 300 300 300 301 301 301 301 302 302 302 300 296 296 293 296 298 299 300 300 298 296 291 288 287 287 295 294 297 296 296 298 298 298 297 296 296 296 295 297 295 294 294 291 291 288 287 288 286 290 292 293 288 286 284 284 283 283 288 289 291 292 294 294 295 292 288 292 292 292 291 291 292 292 292 292 292 291 290 291 292 292 292 294 293 293 294
300 300 300 301 301 301 301 301 302 302 302 298 294 290 287 288 295 300 302 302 298 297 288 291 288 288 291 294 295 295 294 295 296 297 296 295 294 294 295 297 295 296 292 291 290 286 287 286 286 289 291 291 288 286 285 284 282 283 287 289 291 292 292 292 293 293 292 291 292 292 291 290 291 290 290 290 290 291 291 292 292 292 292 292 291 292 291
300 300 300 301 301 301 302 302 302 303 301 297 296 296 296 298 299 300 301 302 297 298 292 288 286 288 286 291 297 294 295 293 292 295 295 296 296 295 295 294 292 295 292 288 287 289 287 284 287 288 289 288 289 286 286 285 282 282 288 289 291 292 293 292 291 291 292 292 291 289 288 289 291 289 287 290 290 291 291 291 291 291 290 289 289 290 290
300 300 300 301 301 302 302 303 303 302 301 302 302 302 303 302 302 304 304 301 298 291 291 287 285 284 286 290 296 298 294 300 296 294 293 294 293 294 293 293 293 294 295 292 287 286 288 286 286 287 287 289 286 284 284 282 283 287 289 290 291 291 291 292 292 292 291 292 293 287 286 288 288 290 290 291 291 290 290 289 290 291 291 291 290 290 291
300 300 300 301 301 302 303 303 303 302 301 300 298 298 302 302 303 302 299 298 294 289 290 287 284 285 286 291 290 294 295 295 289 291 289 294 290 294 290 293 293 289 290 289 287 288 288 288 287 285 289 285 285 286 280 283 287 288 289 290 291 290 290 290 290 289 290 290 292 291 290 290 291 291 290 289 288 289 289 290 291 290 290 291 290 291 291
300 300 300 301 302 303 303 301 300 301 299 299 299 300 300 303 303 302 301 301 292 287 285 284 285 285 284 284 283 291 294 297 289 290 289 290 293 293 292 290 289 288 287 292 287 284 285 287 289 286 282 285 284 279 281 285 286 288 288 289 290 289 289 288 288 289 289 290 289 290 291 291 291 289 289 288 288 289 289 289 290 291 290 289 290 291 292
300 300 301 302 302 301 300 300 299 300 298 298 299 302 303 304 304 302 298 297 301 287 284 283 284 284 284 282 283 287 294 291 288 289 288 288 293 290 290 289 286 286 287 286 285 287 285 288 287 282 282 282 278 283 285 287 287 288 289 288 290 290 290 289 288 289 289 289 290 290 291 291 290 289 289 288 288 289 289 289 290 291 290 289 290 290 291
300 301 301 301 298 299 295 293 297 299 298 298 300 302 303 303 300 304 301 302 300 300 292 285 286 286 288 285 284 287 292 287 288 289 289 289 286 285 288 287 285 286 287 286 285 285 286 290 285 281 280 280 282 288 289 290 289 289 289 290 290 290 290 290 290 290 289 289 289 289 289 288 288 288 288 288 288 289 289 289 290 290 290 290 290 291 292
300 299 296 297 294 288 289 291 297 300 300 300 301 298 298 296 290 289 290 289 291 297 288 292 286 287 285 290 286 291 292 286 288 288 286 285 287 286 284 286 285 287 281 281 285 288 286 282 280 281 282 286 287 289 290 291 291 292 290 290 290 290 290 291 291 290 288 287 287 288 288 289 288 289 288 288 289 290 291 291 291 292 292 292 292 291 291
295 294 294 290 290 286 289 297 299 300 298 299 298 291 288 286 287 287 286 284 286 288 286 292 287 287 289 288 289 294 290 288 285 287 285 288 287 283 286 284 284 285 280 281 284 291 282 281 279 281 281 286 287 288 289 291 291 291 291 291 291 291 292 292 293 291 290 289 289 290 290 289 288 289 290 290 290 291 291 291 292 292 293 293 292 292 293
294 293 287 286 290 292 296 297 297 297 298 291 287 287 286 286 286 285 284 285 285 284 287 287 288 288 290 291 289 289 292 292 287 285 285 286 291 285 283 284 283 283 276 277 282 288 283 277 277 279 279 285 286 288 290 291 290 290 291 291 291 292 292 292 293 293 293 292 293 293 293 293 292 291 291 291 291 291 291 292 293 293 293 293 292 293 294
290 289 290 287 293 292 294 295 296 293 289 286 286 284 284 284 285 283 283 281 281 284 286 289 289 290 288 288 292 289 291 293 289 289 289 286 287 289 284 281 283 281 276 279 283 283 281 279 279 279 281 286 287 288 290 290 290 290 291 291 292 292 293 293 293 293 292 292 292 292 293 293 293 293 294 294 294 293 293 293 293 293 293 292 292 293 292
293 292 293 293 293 292 294 293 289 287 285 285 283 281 281 283 284 284 284 283 283 283 289 290 288 290 290 293 292 291 289 289 289 285 287 284 285 285 280 280 281 279 276 283 283 280 281 276 276 278 285 288 288 289 290 290 290 290 290 291 292 292 293 293 292 293 294 293 293 292 293 293 293 293 293 293 294 293 293 292 292 292 293 293 292 291 291
297 298 295 291 290 288 286 287 286 284 282 282 278 279 280 280 282 282 282 282 283 288 288 291 291 291 291 292 291 291 292 292 289 287 286 284 284 283 282 278 277 276 280 285 283 278 276 274 276 282 288 289 288 289 291 291 291 291 291 292 292 293 294 293 293 292 294 294 293 293 293 293 293 293 293 293 293 292 292 292 294 293 292 292 292 291 291
295 294 292 286 286 286 287 281 286 284 280 277 278 277 277 278 281 280 280 284 288 287 290 291 289 291 287 289 289 286 289 290 287 284 283 281 283 279 277 276 279 282 285 281 280 278 278 277 283 286 289 289 289 290 291 291 291 290 290 291 292 293 293 293 293 292 291 292 293 293 293 293 292 292 292 293 294 294 293 292 292 293 292 292 292 291 290
292 286 283 284 282 283 284 277 282 280 279 279 279 278 278 279 279 278 285 286 290 291 288 289 291 291 287 289 288 286 287 287 286 286 282 283 280 279 278 278 281 280 281 277 275 277 277 279 284 286 288 289 289 291 291 291 291 291 290 290 291 292 292 292 293 293 293 293 293 292 292 292 293 292 292 293 293 294 294 293 292 291 292 292 291 291 289
287 284 281 279 277 280 280 277 276 279 280 280 281 283 284 285 285 286 287 287 289 288 290 290 289 290 287 287 288 286 283 285 285 282 280 281 279 277 281 281 282 278 274 275 273 276 279 284 286 287 289 290 291 291 291 291 292 292 291 290 290 291 293 293 293 293 293 293 293 293 293 292 293 293 292 292 292 292 293 294 293 293 292 292 291 291 290
285 283 280 280 277 280 281 278 278 281 285 285 285 285 288 289 287 288 286 287 290 290 289 288 290 291 289 286 286 285 284 283 283 281 283 281 278 281 282 281 275 273 273 272 272 274 278 284 288 289 290 291 291 291 291 291 291 291 292 292 291 291 292 293 293 293 293 293 292 292 292 292 292 292 292 291 292 292 292 292 293 293 293 294 293 292 290
285 283 282 279 277 280 280 282 284 284 283 285 285 284 284 284 286 288 287 288 291 291 291 290 288 289 287 286 289 284 282 282 283 282 282 281 281 278 275 273 272 273 275 276 279 282 286 287 289 289 290 292 292 291 290 290 291 292 293 292 292 292 292 292 292 292 292 292 292 292 292 292 292 292 293 294 293 293 293 293 292 293 294 293 292 292 291
285 281 281 278 279 278 280 283 283 286 285 284 283 284 285 287 288 289 288 288 290 291 291 293 287 288 284 282 283 284 283 282 281 280 282 280 277 273 272 271 271 274 278 280 285 286 288 289 290 291 291 290 291 292 291 291 291 292 292 292 292 292 292 292 293 292 292 293 293 292 292 292 293 293 293 293 294 293 292 293 292 293 293 293 293 292 292
285 283 282 279 280 281 283 284 285 284 285 284 284 286 284 286 287 288 288 290 289 289 289 289 288 287 283 283 280 280 282 281 281 280 278 275 273 273 273 271 272 276 284 284 283 287 287 288 290 290 290 290 290 291 291 291 290 291 293 293 293 293 293 293 293 292 292 292 293 293 292 292 292 292 293 294 295 294 292 292 292 293 293 294 294 293 293
284 283 282 284 284 283 283 281 282 281 282 285 286 286 285 288 288 289 289 290 289 289 288 287 284 283 283 280 277 277 280 282 282 279 279 279 277 276 277 276 280 283 286 289 289 287 287 289 290 290 290 290 291 292 292 292 292 292 293 293 292 292 293 294 293 292 292 293 293 288 292 293 293 294 295 295 293 292 292 291 292 293 293 293 293 294 294
280 282 284 283 284 283 285 286 284 286 286 286 285 286 286 289 288 289 290 291 290 289 286 283 283 281 277 278 280 282 283 281 278 277 278 279 279 278 276 281 286 287 289 289 289 286 286 290 292 291 291 291 291 292 292 292 292 292 292 292 292 292 292 292 292 292 292 291 292 293 294 294 294 294 293 293 293 293 293 293 292 292 293 294 294 294 295
Wind_Speed
12 11 5 4 7 6 7 9 9 7 6 5 6 5 3 3 2 2 9 8 3 2 1 1 1 3 2 2 4 3 3 4 1 2 2 6 6 5 5 6 5 6 2 3 4 5 4 0 3 3 3 3 2 1 3 4 4 7 2 3 3 1 1 3 2 1 1 1 1 6 3 2 8 5 3 3 7 5 6 4 8 5 4 4 2 2 1
10 7 1 4 6 5 6 8 9 7 5 4 6 4 3 3 1 3 3 6 2 2 3 4 4 2 2 1 3 1 3 2 2 4 6 5 2 5 3 2 5 1 1 4 6 3 4 2 3 3 1 2 1 2 3 9 7 5 7 6 6 3 2 2 4 2 3 4 4 3 3 3 3 3 2 2 4 6 4 6 2 3 5 2 7 5 2
8 3 1 5 4 4 6 7 8 6 6 6 4 4 3 3 2 2 3 4 4 2 0 0 1 4 2 1 3 2 2 5 9 7 8 6 5 2 4 3 2 1 2 5 3 3 3 4 3 2 1 2 1 3 2 4 3 1 2 3 8 3 1 1 3 4 5 4 5 5 5 3 2 2 3 4 2 9 6 4 3 3 4 3 3 2 1
6 3 3 4 3 4 6 7 6 3 5 8 4 3 3 1 2 3 3 3 3 3 2 3 1 2 2 0 4 3 3 4 3 9 10 8 7 5 5 3 1 2 4 6 4 5 4 4 4 3 3 2 1 2 2 2 4 6 11 7 7 4 3 4 1 3 3 1 2 4 1 3 3 2 4 3 4 4 4 4 3 4 5 4 2 4 9
5 1 2 4 3 5 6 7 5 2 6 8 4 2 3 3 1 3 5 2 5 6 5 4 1 1 3 2 2 3 4 4 6 7 4 4 3 1 0 2 1 1 6 5 6 4 6 6 8 1 5 0 3 2 3 6 9 12 9 4 6 5 5 6 10 11 5 3 1 2 2 6 3 2 2 3 3 4 4 4 4 7 9 3 1 8 13
2 0 3 4 4 6 6 6 5 2 6 9 3 3 2 2 1 1 1 1 2 2 4 5 5 1 2 2 2 2 1 2 2 2 5 2 1 3 1 6 3 2 3 7 5 1 5 3 3 2 2 5 1 4 6 3 5 2 4 3 4 4 3 3 7 8 8 5 6 7 10 10 8 8 5 4 4 1 4 3 3 2 4 3 9 13 8
2 2 3 4 4 5 5 7 5 3 6 6 2 3 3 0 3 3 1 2 1 4 1 5 7 5 4 2 1 2 1 5 4 1 5 3 4 4 2 6 8 4 2 3 5 1 8 2 2 2 3 1 2 4 3 6 5 4 4 5 2 6 4 4 8 13 10 8 5 3 11 10 11 10 9 7 7 7 8 8 4 4 2 2 11 13 9
3 2 3 4 4 4 4 6 5 4 7 5 3 4 2 2 1 2 2 3 3 2 1 3 4 5 5 2 2 3 2 3 3 1 3 2 3 3 7 4 6 7 6 5 5 1 1 7 4 2 3 2 1 3 1 4 3 4 4 1 2 2 3 7 2 5 6 8 6 7 6 7 12 10 10 9 9 11 9 8 6 8 10 10 15 14 8
2 4 4 4 4 4 5 5 4 5 5 3 3 2 3 3 2 3 2 2 1 2 1 2 4 2 2 3 1 1 3 3 2 2 2 1 3 2 8 3 9 8 12 12 9 3 4 7 7 5 2 5 1 1 2 2 5 3 3 3 3 4 4 2 1 4 3 4 7 8 10 12 15 12 11 9 5 6 5 4 2 1 9 12 13 9 6
3 4 4 5 4 5 5 5 5 5 5 3 2 2 2 3 2 3 3 2 1 3 1 1 3 2 3 5 4 4 4 2 1 3 3 5 5 4 2 1 10 7 13 10 5 2 2 8 8 10 9 10 9 9 6 4 2 4 3 2 3 2 9 5 2 5 2 1 2 2 2 6 5 5 4 5 6 7 7 8 9 6 11 12 7 4 7
4 4 5 5 4 5 6 6 7 6 4 3 2 2 3 4 4 3 2 1 1 1 2 2 1 2 2 4 1 3 5 4 2 3 1 4 4 4 3 2 9 3 6 3 3 4 10 9 8 8 11 12 12 7 9 14 10 4 5 4 2 3 7 4 1 3 4 4 2 1 3 5 2 2 3 3 1 3 6 5 5 7 4 2 4 9 12
5 6 6 4 5 5 5 6 7 7 4 3 2 2 1 2 3 2 1 0 0 0 2 2 5 2 3 1 0 2 4 4 5 2 6 1 2 4 3 4 5 5 2 2 5 7 7 3 4 7 10 10 13 15 17 15 10 6 1 5 7 6 4 3 2 4 5 2 2 3 4 1 2 2 2 1 5 10 13 9 8 8 10 12 12 12 11
6 7 5 5 5 6 6 7 8 8 7 3 3 3 3 3 2 3 3 2 1 0 1 2 1 4 3 4 2 4 3 2 1 5 6 4 3 5 3 3 5 5 5 6 2 2 5 7 7 5 7 6 7 13 18 15 13 9 8 6 7 4 5 3 3 2 3 2 2 3 1 2 4 2 4 6 8 10 12 10 7 5 6 11 12 10 10
7 7 6 5 5 6 7 8 9 10 9 6 4 3 3 1 1 2 2 1 2 1 3 5 3 3 1 4 5 2 2 4 5 6 5 5 4 5 4 3 2 2 4 2 6 3 5 4 3 4 6 6 5 6 5 4 10 11 10 8 5 8 5 3 4 3 3 3 3 3 0 2 3 3 4 3 4 3 2 2 2 3 5 9 12 10 10
8 7 6 5 6 7 8 8 9 10 9 7 4 3 2 0 1 2 3 2 2 2 1 1 1 4 6 5 5 4 4 4 6 4 1 2 4 3 2 2 2 1 1 2 3 4 2 1 2 2 3 2 1 0 3 4 3 7 5 4 4 3 2 3 3 1 0 6 5 3 1 4 5 4 2 2 3 2 2 3 4 3 5 9 12 12 11
9 8 6 6 6 7 8 9 10 10 9 9 3 3 3 2 2 1 2 1 2 0 1 4 4 3 3 3 3 6 5 3 2 2 4 4 3 2 2 2 0 3 4 6 3 3 2 2 3 2 1 1 1 1 1 3 2 3 5 6 11 9 9 4 2 4 3 2 4 4 5 1 1 7 4 3 0 1 3 1 2 6 9 11 13 13 11
8 8 6 6 6 7 8 9 9 9 9 9 5 3 2 3 4 3 1 1 1 3 6 4 2 1 3 3 3 5 2 4 3 4 2 1 3 3 5 3 1 5 5 5 4 2 2 5 1 2 2 1 2 2 3 2 2 2 3 7 10 8 2 2 5 3 0 3 2 2 1 1 1 5 1 0 1 1 2 2 1 8 10 11 11 13 13
9 8 7 6 6 7 8 8 9 9 9 10 5 4 4 2 4 3 2 2 1 4 5 3 2 0 1 2 4 1 2 4 5 3 3 0 2 2 3 4 3 3 0 4 1 4 3 1 2 1 2 1 1 3 3 2 3 1 1 3 2 4 2 3 3 2 3 3 2 1 1 0 1 3 0 2 3 2 3 4 2 8 10 10 9 10 11
10 9 8 7 6 7 8 8 9 9 9 9 5 4 3 3 4 4 2 1 2 2 4 4 4 1 0 1 4 3 1 0 4 4 1 2 1 1 1 1 2 0 6 3 2 2 2 1 1 0 2 1 1 1 1 2 2 1 1 2 3 2 2 1 1 3 3 1 2 2 1 1 2 1 1 2 2 3 3 3 3 10 11 10 10 12 11
10 9 8 8 8 7 8 9 10 9 9 9 5 4 4 2 5 8 5 2 1 4 6 4 2 4 1 2 3 2 2 3 3 4 4 3 2 1 1 1 1 2 2 2 3 1 1 2 1 1 1 1 1 3 4 3 2 2 1 4 1 1 1 2 2 3 3 1 3 1 2 2 1 5 3 2 1 2 4 7 8 7 10 12 11 11 10
10 9 9 9 8 8 9 10 10 10 9 9 6 4 3 1 3 6 4 1 1 2 3 1 2 4 2 3 3 1 1 1 4 3 2 2 0 1 2 2 3 1 1 1 2 1 1 2 2 1 1 1 2 2 3 5 3 1 2 1 3 1 1 2 1 3 2 2 3 1 2 4 1 2 3 2 2 2 7 8 11 8 10 11 11 10 9
10 10 9 9 9 9 10 11 11 10 10 9 8 3 2 1 1 2 6 4 3 4 4 6 3 6 6 4 5 3 2 2 3 4 7 3 1 1 1 3 3 2 2 4 4 2 1 2 2 1 2 3 1 2 1 2 3 2 1 1 3 2 0 1 2 2 0 1 2 1 3 0 2 2 1 3 4 6 7 8 10 12 9 10 11 11 10
11 11 10 10 10 11 11 11 11 11 11 10 6 2 4 4 3 1 5 4 4 5 6 5 3 4 4 3 2 2 2 1 4 2 4 6 1 0 1 2 2 1 2 1 2 3 3 4 1 3 4 1 4 4 3 3 3 3 3 5 3 3 3 2 6 5 6 7 5 4 5 5 7 7 6 7 8 7 8 11 11 8 10 8 11 11 13
11 11 11 11 12 12 12 12 12 12 12 10 6 4 4 4 3 1 3 2 1 3 1 2 3 4 4 6 5 4 3 5 4 3 2 1 3 0 1 2 2 2 1 1 1 3 4 2 2 1 2 2 1 2 3 2 2 5 5 3 2 2 1 1 6 9 4 3 2 4 6 7 7 8 9 8 7 7 8 9 10 10 9 10 10 11 12
12 11 11 12 12 13 13 13 13 12 12 11 8 5 5 4 5 6 4 1 1 1 2 3 5 5 5 4 4 2 3 3 4 2 2 2 2 3 3 3 2 0 4 3 2 5 2 3 1 1 4 1 2 2 2 4 2 5 4 3 4 3 3 5 7 6 2 5 5 6 8 7 7 6 8 8 9 10 9 10 11 11 11 11 12 12 12
12 12 12 12 12 13 14 14 14 13 12 12 9 5 4 5 3 6 3 2 0 1 3 2 3 5 3 5 7 6 8 7 5 8 9 4 2 4 11 4 5 4 5 2 1 4 2 3 2 1 4 1 2 2 1 4 6 4 1 6 0 4 6 4 6 5 6 8 8 8 10 9 8 7 7 8 10 12 13 13 13 13 15 13 11 10 9
13 12 13 13 14 14 15 15 15 14 14 13 8 6 6 5 6 9 6 3 2 1 2 3 3 4 5 11 5 5 4 7 5 10 12 12 11 8 8 8 8 4 5 5 4 2 2 2 2 4 3 3 2 4 4 6 6 6 5 3 3 6 5 8 10 10 7 7 8 12 7 6 5 6 8 10 11 13 13 12 12 11 12 11 12 11 9
15 13 13 13 14 15 15 16 15 15 15 14 9 6 4 5 6 10 6 1 3 2 2 0 2 3 3 12 10 9 9 6 7 12 11 12 12 10 8 7 6 4 3 2 3 3 3 4 5 0 1 1 3 4 2 3 4 7 4 3 2 3 8 9 6 8 8 8 12 3 8 10 8 9 10 10 8 10 12 11 11 10 10 10 12 13 11
15 14 14 14 15 15 16 16 16 15 16 13 6 3 3 6 6 6 8 3 2 2 3 1 2 5 4 4 8 7 9 7 10 11 11 12 13 11 10 10 8 2 5 6 3 2 3 2 0 2 3 1 3 5 2 3 3 4 1 3 2 4 3 1 6 10 10 10 8 6 8 9 10 11 10 9 6 9 12 10 10 11 11 11 11 10 12
15 15 16 16 16 16 16 16 16 15 15 8 3 2 2 1 3 4 4 4 4 1 1 3 4 0 3 2 5 5 6 8 11 14 14 11 11 9 8 8 7 4 5 3 2 6 1 2 1 1 3 2 2 2 3 4 4 2 3 1 1 4 5 4 2 3 10 8 8 10 15 14 11 10 8 8 7 8 10 11 11 11 10 10 11 10 9
17 16 17 17 17 15 15 16 15 14 11 5 1 1 2 2 1 2 5 4 3 1 2 3 3 1 2 1 1 7 6 6 7 10 9 7 6 5 3 3 5 4 5 3 3 2 0 3 1 2 1 5 2 2 5 5 4 3 3 3 4 6 7 8 10 9 13 14 14 12 12 11 10 11 10 8 8 8 9 10 9 9 9 9 8 7 6
17 18 18 18 17 16 16 15 13 10 5 3 2 0 1 1 0 2 4 3 4 2 2 3 1 2 1 3 3 2 3 3 2 3 4 4 4 3 7 7 4 4 3 3 1 2 2 0 1 3 3 4 3 3 4 5 6 4 4 5 6 9 11 13 12 11 13 15 19 16 12 10 4 7 8 6 8 8 9 10 10 10 10 9 7 8 7
18 19 19 19 19 17 16 16 13 9 7 6 9 11 12 11 10 9 2 4 2 2 3 4 3 1 1 1 4 4 5 2 6 4 4 4 4 3 3 3 1 4 3 3 4 2 1 0 0 3 4 1 2 3 5 5 4 6 8 8 10 12 14 13 13 11 8 4 4 12 15 11 9 9 9 9 9 10 10 10 9 9 10 11 11 11 10
19 19 20 19 19 18 16 16 15 9 5 2 1 1 3 3 4 2 2 3 5 1 3 3 1 2 1 4 3 2 4 2 2 3 3 4 1 2 1 3 5 3 7 4 0 1 0 1 3 1 1 4 1 3 5 4 5 9 9 11 12 13 13 13 10 10 7 7 10 10 11 12 10 10 10 10 10 7 8 8 10 11 9 9 9 8 8
20 20 20 19 17 16 15 11 4 2 1 2 3 4 2 9 8 2 1 2 1 2 3 2 1 2 1 2 2 2 3 3 3 4 3 2 2 3 1 3 3 3 2 1 2 2 2 2 2 1 2 3 2 4 3 6 9 9 10 11 12 12 13 12 8 7 8 9 10 10 11 13 14 11 10 10 9 8 9 8 8 10 10 7 7 7 7
20 20 18 17 16 9 4 1 1 3 3 2 3 6 14 15 9 1 2 1 3 5 2 0 1 2 1 2 2 0 2 4 1 1 1 0 2 3 3 2 5 2 2 2 1 1 2 3 1 2 2 1 2 1 6 10 12 12 11 12 10 8 9 12 12 11 10 9 10 10 11 11 10 10 9 9 8 8 9 10 8 8 9 8 8 6 6
19 16 14 10 4 0 2 1 3 1 1 4 11 17 17 8 1 2 2 3 5 4 5 3 3 2 1 1 0 2 0 2 3 2 5 3 1 2 3 2 2 1 1 2 2 4 2 1 2 3 4 2 2 6 10 11 12 13 15 10 4 7 11 10 12 15 15 13 12 9 9 11 9 7 9 8 8 8 10 11 10 10 10 10 7 7 7
14 6 2 2 1 2 1 1 1 5 10 13 9 3 6 7 1 3 3 3 3 3 3 3 2 1 1 1 2 2 2 1 2 1 1 0 1 1 1 2 0 0 2 2 2 1 1 4 3 3 4 4 4 5 7 9 9 8 6 6 8 9 11 11 13 15 16 15 12 11 11 11 9 8 9 8 8 9 7 6 5 5 6 6 6 6 5
2 2 2 2 2 0 1 1 6 13 5 2 3 1 1 1 1 1 1 2 2 2 2 2 1 1 2 4 2 1 3 2 2 2 2 1 0 1 1 2 1 1 1 1 1 2 2 2 2 2 4 4 6 4 3 6 6 5 6 7 8 10 11 11 12 14 12 10 12 12 12 12 13 10 7 7 5 5 5 5 5 4 5 5 5 4 5
4 2 1 1 0 1 4 6 10 6 2 1 3 2 1 2 2 0 1 2 1 1 1 1 1 2 2 4 5 2 2 1 1 1 1 1 2 1 0 1 0 2 1 1 1 3 2 2 1 1 3 2 4 3 5 7 7 5 6 8 9 9 9 10 9 6 10 10 9 10 9 10 9 9 8 8 8 7 5 4 3 4 4 4 4 4 4
4 1 1 0 3 4 4 6 5 3 2 1 1 2 1 1 1 0 1 3 0 0 1 2 1 1 1 1 1 3 1 3 2 2 2 3 1 2 2 1 0 2 1 2 0 1 1 2 1 1 4 3 6 5 6 6 6 6 6 7 8 8 9 10 9 9 10 8 7 7 7 9 9 8 7 8 7 7 6 5 5 4 5 5 4 3 3
4 3 4 5 5 5 4 2 3 1 1 1 2 0 1 1 1 1 0 2 1 0 1 1 0 3 1 1 1 3 1 1 1 1 1 1 1 1 1 0 1 2 1 0 1 2 2 2 0 2 2 4 5 5 7 7 6 8 7 7 8 8 9 9 10 8 9 9 7 7 6 7 7 5 5 5 5 5 5 4 5 4 4 3 4 4 5
6 3 2 2 2 1 1 1 2 1 1 0 2 1 2 2 0 1 0 1 1 0 1 2 1 0 2 1 2 3 1 2 1 1 2 1 0 1 2 1 1 2 1 0 1 1 2 2 2 4 6 6 5 7 8 8 7 8 7 6 7 7 9 10 9 8 6 8 9 7 6 6 5 4 4 4 5 4 2 2 3 4 4 4 4 5 5
0 0 1 1 1 1 1 2 1 1 2 1 2 2 1 1 0 0 0 1 2 1 2 5 3 3 2 2 1 1 0 1 2 2 2 0 1 1 2 1 1 1 1 1 1 1 0 1 2 8 7 5 4 6 7 8 8 8 7 5 5 6 7 7 8 8 6 3 4 4 5 5 5 4 4 4 5 6 4 3 3 5 5 5 5 4 4
0 1 1 1 1 1 2 1 2 2 3 2 1 1 2 3 2 1 2 1 2 4 3 1 4 4 4 1 1 1 0 1 1 2 0 0 2 1 1 1 1 1 1 1 1 0 1 1 2 3 7 8 7 7 7 7 7 8 8 7 6 7 8 9 8 7 6 6 6 6 5 5 5 5 4 4 3 3 5 5 6 6 5 5 5 5 4
0 2 1 3 1 2 1 0 1 1 2 2 2 5 4 3 4 4 3 1 3 4 6 5 5 5 3 2 1 1 1 1 2 1 0 0 2 1 0 0 1 1 1 1 1 3 3 3 7 8 9 9 9 8 8 8 7 7 9 8 7 8 8 8 8 8 7 6 6 6 6 5 5 5 5 4 4 4 3 4 6 7 6 6 6 6 5
1 1 1 1 2 1 1 1 2 2 2 4 4 5 3 4 4 0 2 1 2 2 5 2 2 2 4 0 1 0 2 1 2 0 0 1 1 1 0 0 0 0 1 1 3 3 3 3 7 9 10 10 10 9 9 8 8 9 9 8 8 8 8 8 8 8 6 6 7 6 6 5 4 3 5 5 4 4 4 5 5 7 8 7 6 6 5
1 1 1 1 3 2 3 3 0 0 0 0 1 1 1 1 2 2 2 2 3 5 7 6 5 2 3 2 1 1 0 1 2 1 0 2 0 2 1 1 0 1 2 2 3 3 1 5 9 9 10 9 10 10 10 10 10 11 10 10 10 9 9 9 7 6 7 8 8 7 6 6 5 6 5 5 5 4 4 5 5 5 4 4 5 5 6
1 1 1 1 1 2 1 1 2 4 1 1 1 1 2 3 3 3 2 1 4 4 1 3 3 3 1 1 1 0 1 2 1 1 0 1 1 2 1 1 0 1 3 4 2 1 2 6 9 10 10 10 9 9 9 10 10 10 10 10 10 10 10 10 10 9 8 7 6 7 6 6 5 5 4 4 5 3 4 5 6 5 5 6 6 6 5
0 1 1 2 1 1 1 1 1 0 1 1 1 2 1 1 1 2 3 5 2 4 2 4 2 3 0 0 1 2 0 0 1 0 1 1 1 1 1 0 3 2 0 2 3 2 2 5 9 9 10 10 11 10 11 10 10 10 9 9 8 8 9 10 9 9 8 7 7 7 7 7 6 6 7 7 5 5 6 6 6 6 5 4 6 6 6
0 0 1 1 2 3 5 4 4 3 2 4 4 4 5 6 5 5 4 5 5 3 2 2 1 2 1 2 2 1 0 1 1 1 1 1 1 2 1 2 3 4 4 3 3 1 4 8 9 10 10 10 10 11 10 10 10 10 9 9 8 8 7 9 10 9 8 7 6 7 8 8 8 8 5 5 7 7 6 4 4 4 5 4 4 5 5
0 0 2 0 0 1 3 2 1 2 3 3 4 2 3 3 3 2 3 5 4 5 4 1 2 2 2 2 2 1 0 2 1 0 0 2 2 2 3 4 2 4 6 4 2 3 4 5 8 13 11 12 12 11 10 10 10 9 9 9 8 8 8 8 8 8 8 7 8 8 7 7 7 6 5 6 6 6 6 5 5 6 5 4 4 4 3
Wind_Direction
261 241 245 289 297 309 326 323 314 313 1 327 325 310 249 223 339 71 149 163 173 322 56 326 202 209 225 332 271 250 270 256 163 277 227 281 237 268 220 239 197 235 187 154 117 128 80 12 150 123 109 155 224 284 187 183 155 141 118 74 147 128 93 111 52 90 5 59 90 91 50 129 123 50 56 159 167 178 169 174 162 140 139 149 163 179 106
240 231 237 287 292 317 327 320 310 323 1 322 319 300 295 336 324 88 122 180 295 234 173 194 207 235 277 175 270 207 265 262 265 230 238 214 240 231 266 259 219 238 243 122 144 191 108 340 105 100 240 118 211 326 192 177 153 162 185 175 165 181 298 162 118 106 71 88 130 104 65 70 60 91 59 25 94 75 93 92 72 128 190 138 163 186 190
227 201 236 282 298 323 330 316 317 336 341 335 329 302 316 307 256 71 128 204 288 254 37 166 141 201 221 17 284 265 237 224 222 225 249 221 246 278 248 247 261 158 236 88 102 63 136 122 354 80 128 91 306 18 108 229 134 276 131 88 130 69 86 165 169 154 150 148 174 168 168 131 87 39 61 29 109 133 151 132 159 173 165 181 183 149 76
200 177 268 289 296 309 315 317 320 341 330 330 310 306 292 279 129 66 126 233 271 277 256 276 186 126 157 316 250 209 247 277 224 197 251 230 243 205 270 278 24 61 136 65 49 54 6 110 166 172 152 147 64 340 32 135 107 97 91 77 82 105 71 24 170 160 150 92 63 8 339 124 133 50 28 8 7 352 55 80 149 185 150 187 170 157 152
157 204 289 289 293 306 312 311 316 344 325 331 334 294 252 303 174 149 168 206 261 269 287 288 258 213 177 176 209 215 209 284 300 178 248 169 210 210 180 349 23 35 89 109 81 348 87 55 103 56 130 247 89 333 65 96 95 109 84 33 87 100 85 45 68 59 55 34 43 3 12 112 61 84 31 4 18 328 140 159 172 117 120 201 178 163 153
137 215 301 312 313 309 311 312 318 338 328 338 317 284 216 219 336 319 238 217 189 198 258 218 249 286 162 264 209 225 153 280 275 281 235 314 228 222 86 36 29 279 124 139 95 40 72 52 111 128 32 131 36 94 32 71 312 69 72 354 97 107 102 127 89 67 68 67 85 89 82 69 82 72 52 36 352 333 155 87 16 165 190 204 162 172 163
99 18 339 313 309 307 325 315 311 346 320 328 279 272 236 280 300 269 291 259 235 198 194 187 207 231 232 278 51 327 158 269 244 233 304 356 3 4 93 351 332 339 307 93 115 243 114 35 327 179 114 93 141 104 119 56 16 79 86 49 87 107 58 124 115 90 56 53 71 101 106 105 75 56 53 51 74 76 92 96 85 41 32 349 140 142 109
53 360 305 314 320 333 341 318 326 343 320 315 264 231 277 154 21 295 342 288 306 246 167 206 180 211 228 243 186 218 208 263 290 277 26 8 341 20 70 8 39 57 60 69 82 212 209 150 136 226 126 88 39 92 51 138 55 40 66 77 334 121 143 169 213 78 44 44 73 92 99 115 88 59 55 68 83 86 77 93 80 79 71 110 126 123 110
354 317 319 342 336 327 341 323 343 338 337 285 226 252 199 309 300 286 302 256 214 149 194 157 172 187 228 203 202 228 249 256 211 68 285 326 324 30 126 183 72 34 70 62 76 20 91 83 83 151 196 110 266 143 140 304 108 29 73 29 12 55 132 87 186 104 74 44 74 100 106 95 89 63 41 36 41 69 39 57 343 190 136 129 121 132 150
334 336 338 345 337 336 334 334 357 343 326 290 293 269 4 291 255 292 278 244 248 212 186 13 146 230 203 187 183 200 272 218 337 81 32 53 61 19 29 216 80 31 59 49 27 312 81 83 93 90 78 92 80 66 72 40 121 120 89 324 67 90 137 159 153 94 153 176 245 137 234 128 100 36 9 32 81 104 97 61 48 66 130 133 158 165 127
349 346 348 343 341 344 326 350 354 350 347 348 337 341 339 8 340 335 302 259 279 214 183 195 248 288 132 222 300 233 271 283 255 120 312 357 13 11 16 1 86 49 55 13 339 149 121 127 108 97 86 79 85 78 79 62 46 53 124 99 58 96 126 102 342 105 150 211 323 253 157 171 129 26 288 274 341 143 100 70 44 21 16 75 54 123 129
358 6 354 358 357 337 344 350 353 356 348 343 319 299 6 356 296 267 351 236 253 277 215 207 203 226 198 146 301 310 302 322 325 297 122 169 293 346 349 353 73 75 346 359 113 119 135 118 99 78 56 57 63 55 50 51 43 48 326 135 124 121 89 83 40 111 141 182 248 156 185 107 30 332 29 157 120 102 97 87 67 74 94 107 109 120 124
8 1 359 3 4 346 356 352 349 353 355 348 348 317 352 356 326 321 300 301 275 251 186 243 114 285 311 53 250 274 278 298 17 77 77 76 14 34 3 18 61 111 122 136 111 66 59 68 58 50 41 2 40 51 40 31 23 22 37 24 111 124 107 128 63 48 90 140 149 185 114 323 307 64 82 91 111 115 107 74 60 82 120 126 121 116 112
6 6 2 4 354 356 1 357 350 352 351 353 339 332 321 337 342 317 331 12 286 231 291 306 316 260 132 233 198 199 238 71 57 33 66 3 61 30 11 32 354 311 141 142 53 51 77 17 58 19 1 5 13 37 10 72 39 30 21 23 24 116 103 107 100 326 138 95 69 51 333 246 117 137 178 191 158 205 268 113 94 112 141 140 128 122 122
8 9 5 352 350 358 5 352 351 346 346 357 331 307 298 200 241 304 323 290 304 294 216 79 40 246 177 177 184 108 37 66 73 37 306 260 68 28 35 27 352 84 339 339 28 32 94 109 63 73 7 45 107 111 336 32 9 38 36 41 59 331 131 203 121 19 119 134 108 101 88 230 195 182 88 106 99 114 162 93 123 156 144 146 138 136 138
5 4 360 355 348 2 355 353 346 343 344 346 320 296 264 231 175 108 273 334 311 294 175 226 273 212 154 128 244 135 134 90 102 72 19 8 4 326 106 126 143 160 75 71 64 79 38 82 157 104 127 136 19 102 137 346 35 48 25 43 68 53 63 84 92 131 140 141 144 176 177 213 64 156 139 106 118 198 232 253 152 161 158 155 148 138 144
2 2 357 347 345 354 350 347 343 338 338 345 334 324 301 159 177 204 118 325 125 256 312 307 261 162 112 82 131 62 18 118 153 111 99 12 358 315 309 360 120 65 59 83 8 72 56 66 43 84 86 275 159 104 90 31 101 56 42 14 45 46 15 55 86 117 120 141 127 158 241 84 113 149 138 223 226 194 257 210 180 152 162 155 152 147 148
354 355 354 350 345 347 341 343 340 340 339 334 323 324 290 195 187 184 236 267 352 287 269 210 191 348 68 168 124 160 97 91 59 42 71 347 304 23 347 352 36 32 249 78 358 75 75 96 128 138 105 46 307 267 148 147 98 26 41 24 31 9 35 16 117 121 106 100 85 65 163 271 177 141 223 261 228 262 188 183 73 147 148 150 141 138 136
350 351 352 351 349 345 340 340 344 341 334 334 326 280 263 214 188 200 256 243 169 260 293 319 229 234 255 71 74 134 41 67 149 109 99 94 66 307 309 52 295 348 6 126 78 75 102 44 342 82 124 153 266 94 40 121 105 105 263 123 103 54 91 85 120 95 124 112 107 85 2 31 107 63 272 322 212 163 171 44 133 140 135 134 134 131 132
350 348 347 351 352 347 344 343 342 340 336 341 342 319 299 263 200 190 202 223 236 270 288 291 343 360 287 18 77 65 142 73 356 114 166 144 184 166 174 122 32 75 64 57 68 270 118 133 109 145 69 116 79 131 77 58 346 42 36 336 32 74 127 107 116 116 79 60 93 117 192 134 70 123 81 331 266 59 91 117 108 117 122 126 127 125 121
346 342 341 348 347 348 344 345 342 340 341 338 352 335 335 98 212 213 242 166 301 300 292 284 314 307 299 16 336 130 154 190 177 98 195 87 138 61 135 207 152 111 146 115 132 147 154 130 173 107 43 105 123 223 146 131 84 51 316 73 79 330 81 119 167 249 123 141 165 184 37 107 114 230 165 153 15 109 141 131 126 125 130 130 124 117 116
344 339 338 340 344 344 344 341 341 340 340 340 342 318 296 246 285 242 216 228 243 231 269 305 268 267 279 295 275 251 350 257 225 147 143 117 332 317 287 108 115 152 144 129 79 75 353 96 92 136 137 109 20 70 121 136 143 126 27 289 160 4 310 322 151 158 338 66 84 133 217 298 91 79 84 68 97 115 127 125 130 134 127 134 126 122 119
339 334 335 337 338 338 339 338 339 339 335 339 337 316 293 308 311 292 183 206 257 266 269 289 287 261 261 232 231 270 307 334 102 100 142 111 105 239 119 124 160 149 96 289 179 110 129 142 112 115 102 47 127 122 45 27 110 153 121 11 70 63 98 94 90 109 114 71 55 100 109 113 81 70 81 98 97 86 108 122 118 119 130 127 129 127 126
333 332 330 331 332 333 334 334 336 334 332 328 331 297 290 269 256 243 186 235 226 290 260 252 39 5 323 321 328 1 33 5 347 294 281 98 115 166 339 279 106 119 70 64 301 130 143 86 109 232 101 144 167 108 146 139 119 146 113 123 103 136 42 27 112 147 148 72 46 81 101 103 100 90 82 78 83 96 110 108 110 117 106 98 106 117 121
333 328 328 327 328 329 329 330 330 330 327 323 319 283 273 264 229 213 196 207 230 151 110 337 30 290 301 292 277 299 54 305 281 260 204 168 150 162 154 112 160 359 147 150 193 99 82 115 158 127 111 171 273 104 345 115 154 189 120 127 144 146 174 98 116 111 75 133 121 94 81 80 93 107 110 97 90 89 89 104 109 104 98 104 108 108 108
334 330 327 325 325 327 327 326 326 325 322 318 317 294 274 255 215 202 233 307 344 180 87 58 42 355 282 25 18 328 305 333 3 58 51 48 41 94 126 143 70 41 95 102 64 80 99 70 84 73 120 128 297 116 106 333 114 133 106 143 135 130 163 136 152 109 98 97 110 110 87 69 72 89 94 107 113 107 104 106 106 103 104 102 91 94 104
335 333 326 325 325 324 324 322 323 321 320 317 314 298 258 244 210 193 191 180 199 19 39 97 279 303 24 54 345 340 346 350 19 59 49 39 58 69 85 93 101 83 82 69 45 106 74 83 67 69 38 96 93 67 108 115 107 122 102 94 145 152 137 129 120 120 159 170 168 149 130 140 110 108 114 115 114 111 106 101 97 98 105 105 103 96 96
337 333 330 325 323 321 320 320 320 321 320 321 315 306 251 221 208 207 226 235 331 136 148 153 13 318 262 42 13 15 15 3 49 64 57 51 48 49 60 66 73 70 19 63 74 46 56 80 78 109 83 180 111 69 15 107 107 83 90 109 322 204 166 166 165 158 178 160 153 122 78 105 123 123 117 114 111 109 104 101 103 102 101 106 109 112 108
333 331 330 327 324 323 320 320 320 321 326 331 318 288 213 220 215 203 214 214 183 114 98 142 247 28 42 319 318 14 18 16 57 60 62 52 49 47 55 55 58 76 86 72 89 77 67 77 9 61 78 350 86 129 158 84 82 105 72 337 296 299 212 200 95 90 81 118 126 118 127 127 129 122 115 111 105 100 102 103 107 115 117 118 114 112 115
329 327 328 326 324 323 320 319 321 324 332 340 335 31 3 91 184 194 185 175 179 173 92 76 67 48 270 318 356 358 8 11 59 61 53 49 44 41 31 51 42 24 61 68 79 84 49 82 49 67 34 288 96 120 91 117 102 84 32 38 56 127 92 66 32 134 135 108 97 99 112 111 109 107 97 95 95 98 108 113 114 113 108 108 108 106 107
327 325 325 323 321 321 317 316 316 320 328 334 337 35 51 66 28 166 158 161 169 102 120 78 97 281 45 78 8 4 353 353 32 64 58 54 58 37 347 71 50 353 67 58 51 82 94 49 27 50 64 31 67 101 128 130 119 93 41 67 115 113 107 98 86 85 106 107 105 95 85 97 108 96 76 81 90 94 97 97 92 90 97 95 89 93 91
324 324 321 320 318 316 310 306 305 308 300 281 242 145 148 162 271 152 190 158 141 192 96 95 65 34 344 322 348 308 336 19 20 32 45 355 37 14 37 40 71 9 61 81 107 100 49 256 68 51 44 352 37 93 91 101 104 111 110 111 112 113 114 110 99 91 104 116 113 94 96 101 65 109 127 113 96 89 93 96 98 101 92 91 88 80 80
322 320 319 316 314 312 307 304 301 297 271 261 278 279 271 270 275 279 184 159 137 40 101 75 100 182 85 89 306 359 12 15 24 10 48 358 28 342 49 15 15 68 37 89 22 73 290 94 254 76 30 304 69 86 77 61 72 112 120 123 120 118 113 108 105 106 106 63 359 135 140 135 119 101 106 109 106 107 109 108 112 111 105 100 97 95 90
320 317 316 313 309 308 307 306 305 285 250 278 228 61 204 218 295 351 125 111 102 121 64 95 79 59 72 302 89 358 11 61 3 329 78 19 318 34 32 30 12 71 359 37 258 105 85 34 43 53 250 36 15 83 76 67 109 117 118 119 117 111 108 102 93 91 65 62 78 79 91 104 107 108 102 96 92 90 102 113 109 99 94 94 90 92 99
317 315 310 308 306 306 307 313 332 50 226 265 263 231 276 325 343 307 218 153 79 2 40 21 72 100 55 13 32 333 2 60 31 344 74 27 352 38 360 51 346 62 24 240 64 33 40 36 283 70 37 290 56 70 115 141 130 124 124 122 123 118 113 102 80 86 92 95 96 98 108 116 116 111 110 112 114 117 106 93 100 109 104 98 104 107 106
314 312 309 304 304 306 304 237 28 348 38 337 266 302 320 317 321 351 141 137 110 151 84 231 54 102 120 111 90 359 324 71 337 312 23 282 44 29 58 105 78 23 274 35 51 321 32 322 272 61 307 61 38 101 142 147 138 138 134 135 142 134 123 124 126 112 103 96 101 109 107 103 105 113 111 110 112 110 112 113 112 113 115 117 118 117 110
313 311 308 304 306 65 353 250 290 66 50 264 282 297 293 295 224 90 21 47 17 69 121 155 87 171 163 150 216 276 39 112 337 12 358 34 71 313 22 38 67 302 33 17 21 31 19 298 66 56 22 40 59 119 136 147 145 143 141 135 98 92 103 110 120 118 112 109 110 107 109 112 109 108 114 123 128 134 131 129 134 131 131 130 131 127 121
313 316 357 14 36 41 354 320 314 304 309 294 301 321 6 27 65 355 2 35 306 50 15 61 82 136 315 183 86 291 68 46 316 99 84 230 99 51 353 61 21 88 69 313 16 300 352 39 37 61 69 49 65 108 129 142 139 130 114 116 125 120 121 127 129 125 125 126 128 131 124 120 122 134 134 138 145 140 124 113 108 106 115 121 121 122 123
38 13 48 37 95 181 195 260 332 320 284 244 33 69 340 6 48 33 355 285 357 37 319 72 132 194 106 72 47 329 57 136 79 35 107 302 123 94 346 95 354 78 52 55 54 303 68 27 29 64 86 119 123 106 112 117 121 122 126 125 128 132 134 137 141 140 144 142 144 146 140 142 145 143 132 121 105 97 116 123 122 127 125 125 134 139 135
10 33 6 20 104 264 292 299 329 325 58 40 346 88 86 335 95 158 313 59 6 317 305 77 189 169 232 153 147 92 303 333 107 102 107 96 315 91 234 98 289 78 30 25 12 327 110 95 341 106 112 144 128 127 141 142 132 126 128 128 130 131 134 132 129 117 117 121 129 130 127 126 128 134 139 135 133 130 131 139 133 133 141 142 138 151 150
10 326 20 359 297 319 300 306 318 48 55 34 9 16 52 43 15 181 63 56 19 194 315 113 125 138 84 36 28 115 298 88 68 88 94 59 273 114 53 77 267 77 13 81 359 59 81 84 33 102 139 138 137 149 141 144 131 133 134 136 137 137 136 129 122 124 125 126 125 122 126 135 137 142 144 144 147 146 150 151 157 160 155 142 149 144 120
292 283 301 295 281 279 298 344 45 44 24 54 121 348 294 246 292 14 69 141 204 231 88 128 104 107 76 352 52 123 72 324 106 84 103 90 345 91 128 40 351 106 116 93 101 70 72 87 54 144 158 126 117 136 148 142 138 140 148 146 140 139 137 131 131 134 139 137 136 131 133 138 139 140 144 147 145 147 145 156 156 152 151 121 103 125 141
314 252 214 302 297 329 37 60 320 93 156 181 48 44 349 78 25 135 242 281 312 96 113 337 12 35 35 197 81 13 85 243 288 14 67 76 290 52 80 35 35 69 80 9 64 66 60 124 169 163 154 148 148 151 154 152 149 147 152 152 146 150 144 138 140 139 137 140 145 143 143 143 137 136 136 136 129 135 148 170 140 132 134 138 138 140 144
256 350 282 294 69 302 89 171 250 57 10 24 116 169 236 89 256 44 47 222 162 135 191 153 186 176 123 330 85 72 73 84 57 91 69 322 57 16 50 44 46 360 323 46 30 79 97 225 192 153 157 139 153 156 147 146 152 145 148 152 139 141 131 117 116 122 119 91 96 106 118 129 128 135 153 162 170 164 149 119 111 125 133 134 134 138 133
256 354 27 29 36 287 83 246 339 124 191 227 131 151 149 159 216 215 196 244 137 164 139 78 124 106 93 326 46 45 18 145 307 93 164 31 71 24 87 123 162 19 92 120 16 31 346 201 149 146 158 161 170 163 151 147 155 155 144 136 144 141 143 147 148 144 145 155 150 146 151 152 155 160 174 173 170 162 158 153 150 141 144 139 131 135 153
131 180 99 92 352 322 98 176 13 135 279 151 182 185 167 221 163 202 233 102 123 145 148 154 126 105 79 313 118 120 351 94 64 30 73 64 91 76 43 341 73 87 46 48 116 203 218 166 160 168 171 169 164 160 155 159 154 137 139 153 164 163 164 155 157 159 159 154 154 164 162 166 172 167 169 170 164 159 155 140 151 145 141 141 150 157 162
96 360 92 105 112 264 61 144 229 205 179 192 220 190 181 179 180 241 124 180 112 138 88 41 70 113 114 55 50 55 45 34 87 303 243 44 90 125 350 185 227 183 144 228 250 244 241 200 172 158 163 167 159 160 156 149 151 160 168 157 159 169 168 166 162 165 161 154 155 162 163 176 167 135 135 144 149 147 140 142 157 149 155 162 158 144 150
229 239 89 151 214 169 166 222 153 5 351 315 354 209 246 344 148 158 182 209 137 160 134 125 109 85 75 312 39 95 5 336 101 26 34 130 118 39 19 36 308 247 206 179 227 216 208 162 167 162 164 163 159 158 154 155 168 173 168 164 168 167 174 171 171 164 155 164 172 172 162 161 164 164 164 150 137 136 145 150 159 150 136 122 135 150 159
184 139 170 193 180 154 207 334 145 159 85 317 222 192 153 164 198 157 158 150 145 142 140 109 156 99 85 325 76 105 62 347 91 174 34 40 101 180 151 194 308 296 239 198 229 190 198 164 160 150 150 156 161 158 161 163 167 170 172 171 172 173 172 175 176 172 174 173 168 162 167 165 156 143 129 123 143 144 144 150 163 159 164 160 155 160 167
236 325 45 82 65 328 278 253 50 351 287 313 214 170 167 284 188 155 169 136 122 122 121 69 44 80 49 97 41 16 58 325 116 104 74 132 164 154 86 39 224 198 273 190 220 218 167 145 143 147 155 156 164 166 163 168 170 173 177 178 171 168 177 177 169 163 171 177 176 171 152 147 153 145 160 175 156 125 141 162 176 170 171 175 158 164 174
333 119 220 170 156 194 152 160 170 185 217 222 199 197 178 194 179 166 203 136 143 113 48 141 146 100 120 41 50 81 196 180 80 75 180 185 153 130 185 201 225 207 233 232 175 129 154 159 154 153 155 161 165 168 165 164 170 176 173 170 172 177 179 176 168 165 173 173 159 147 158 168 170 170 150 112 122 137 142 164 184 182 169 164 175 170 174
57 157 222 229 93 147 166 49 48 183 198 194 198 226 156 209 235 185 153 135 134 153 162 168 105 80 76 138 209 133 93 49 39 50 286 247 177 164 204 203 210 206 211 199 177 163 180 178 167 161 160 164 167 165 165 163 165 163 164 166 163 168 172 174 171 167 157 155 169 178 175 157 137 119 120 137 135 141 159 174 184 187 184 183 182 187 185